Location: Maignaut
(43.8886°N, 0.4051°E)
Time: 19:11:45
(UTC+00:00)

Cosmos 1626 - Pass Details

Date: 17 January 2021
Orbit: 490 x 494 km, 82.5° (Epoch: 28 February)

Event Time Altitude Azimuth Distance (km) Brightness Sun altitude
Rises 17:42:30 0° 190° (S) 2,563 6.2 -9.6°
Reaches altitude 10° 17:44:36 10° 192° (SSW) 1,685 5.2 -10.0°
Maximum altitude 17:48:18 77° 279° (W) 512 2.3 -10.6°
Drops below altitude 10° 17:52:01 10° 6° (N) 1,699 4.6 -11.2°
Sets 17:54:08 0° 7° (N) 2,585 5.5 -11.6°
